Location: Antioch Church
(34.9543°N, 88.5145°W)
Time: 04:41:57
(UTC+00:00)

SL-16 R/B - Pass Details

Date: 11 December 2019
Orbit: 840 x 849 km, 71.0° (Epoch: 18 January)

Event Time Altitude Azimuth Distance (km) Brightness Sun altitude
Exits shadow 10:56:26 23° 219° (SW) 1,733 3.6 -22.9°
Drops below altitude 10° 10:59:02 10° 198° (SSW) 2,460 4.6 -22.4°
Sets 11:01:44 0° 188° (S) 3,389 5.4 -21.9°
